Home   Weather   Kashan   Past weeks

Flag for Iran Past Weather in Kashan, Iran — Yesterday and Last 2 Weeks

Now
102 °F

Sunny.


Feels Like: 98 °F
Forecast: 71 / 100 °F
Wind: 7 mph from Northwest

Location: Kashan Airport

Current Time: Aug 30, 2016 at 5:38:05 PM

Latest Report: Aug 30, 2016 at 3:30 PM


Visibility: 10 mi

Pressure: 29.89 "Hg (26.97 "Hg at 939m altitude)

Humidity: 13%

Dew Point: 43 °F

Location of KashanLocation

Past Weather in Kashan — Graph

°F

Kashan Temperature Yesterday

Maximum temperature yesterday: 102 °F (at 2:30 PM)
Minimum temperature yesterday: 72 °F (at 5:30 AM)
Average temperature yesterday: 89 °F

High & Low Weather Summary for the Past Weeks

 TemperatureHumidityPressure
High102 °F (Aug 27, 5:30 PM)42% (Aug 17, 6:30 AM)30.07 "Hg (Aug 17, 6:30 AM)
Low68 °F (Aug 23, 6:30 AM)9% (Aug 23, 2:30 PM)29.68 "Hg (Aug 21, 12:30 PM)
Average86 °F21%29.93 "Hg
* Reported Aug 15 3:30 PM — Aug 30 3:30 PM, Kashan, Weather by CustomWeather, © 2016

Note: Actual official high and low records may vary slightly from our data, if they occured in-between our weather recording intervals... More about our weather records

Advertising

Kashan Weather History for the Previous 24 Hours

Scroll right to see more
 ConditionsComfort  
Time TempWeatherWind HumidityBarometerVisibility
3:30 PM
Tue, Aug 30
102 °FSunny.7 mph13%29.89 "Hg10 mi
2:30 PM102 °FSunny.7 mph13%29.92 "Hg10 mi
12:30 PM95 °FSunny.5 mph14%29.95 "Hg10 mi
11:30 AM95 °FSunny.12 mph14%29.95 "Hg10 mi
9:30 AM86 °FSunny.5 mph20%29.95 "Hg10 mi
8:30 AM81 °FSunny.No wind21%29.95 "Hg10 mi
6:30 AM77 °FClear.No wind26%29.95 "Hg10 mi
5:30 AM79 °FClear.5 mph21%29.95 "Hg10 mi
3:30 AM86 °FClear.No wind15%29.92 "Hg10 mi
2:30 AM88 °FClear.5 mph17%29.92 "Hg10 mi
12:30 AM91 °FClear.12 mph14%29.92 "Hg10 mi
11:30 PM
Mon, Aug 29
93 °FClear.14 mph13%29.92 "Hg10 mi
9:30 PM91 °FClear.No wind17%29.89 "Hg10 mi
8:30 PM91 °FSunny.No wind20%29.89 "Hg10 mi
6:30 PM102 °FSunny.No wind11%29.89 "Hg10 mi
5:30 PM102 °FSunny.7 mph12%29.89 "Hg10 mi
Weather by CustomWeather, © 2016

See weather overviewHow to use our weather pages